Overview Statistics Trail Chart Weather Telemetry Raw packets
 

This is the latest recevied weather packets stored in our database for station/object K4IR. If no packets are shown the sender has not sent any weather packets the latest 10 day(s).

<< 1 2 3 4 5 >>
Time Temp. Humidity Pressure Rain* Wind** Luminosity Snow
1788620505 30.56° C 78% 1012.8 hPa 0 mm - 90 W/m² -
1788619903 30.56° C 78% 1013.1 hPa 0 mm - 98 W/m² -
1788619302 30.56° C 78% 1013.1 hPa 0 mm - 117 W/m² -
1788618697 30° C 80% 1013.2 hPa 0 mm - 204 W/m² -
1788618096 30° C 80% 1013.1 hPa 0 mm - 395 W/m² -
1788617493 29.44° C 81% 1013.4 hPa 0 mm - 340 W/m² -
1788616893 29.44° C 82% 1013.1 hPa 0 mm - 99 W/m² -
1788616289 28.89° C 83% 1013.2 hPa 0 mm - 95 W/m² -
1788615688 28.33° C 84% 1013.3 hPa 0 mm - 91 W/m² -
1788615084 27.78° C 87% 1013.3 hPa 0 mm - 91 W/m² -
1788614485 27.78° C 89% 1013.4 hPa 0 mm - 68 W/m² -
1788613880 26.67° C 93% 1013.5 hPa 0 mm - 74 W/m² -
1788613280 26.11° C 97% 1013.5 hPa 0 mm - 179 W/m² -
1788612676 25.56° C 98% 1013.5 hPa 0 mm - 122 W/m² -
1788612074 25.56° C 99% 1013.7 hPa 0 mm - 58 W/m² -
1788611473 25.56° C 99% 1013.4 hPa 0 mm - 72 W/m² -
1788610872 25.56° C 99% 1013.2 hPa 0 mm - 69 W/m² -
1788610268 25° C 99% 1013.3 hPa 0 mm - 54 W/m² -
1788609668 25° C 99% 1013.3 hPa 0 mm - 42 W/m² -
1788609068 25° C 99% 1013.2 hPa 0 mm - 42 W/m² -
1788608467 24.44° C 99% 1013.2 hPa 0 mm - 30 W/m² -
1788607863 24.44° C 99% 1013.1 hPa 0 mm - 25 W/m² -
1788607260 24.44° C 99% 1012.9 hPa 0 mm - 19 W/m² -
1788606659 24.44° C 99% 1012.9 hPa 0 mm - 13 W/m² -
1788606078 24.44° C 99% 1012.9 hPa 0 mm - 8 W/m² -

* Rain latest hour (hover to see other rain measurements)
** Current wind speed in m/s (hover to see current wind gust speed)